Theta_e
316 315 313 312 311 309 307 306 306 304 304 302 301 300 300 298 298 297 296 293 289 288
313 313 312 311 311 310 309 307 305 304 303 302 301 300 299 298 294 296 296 293 289 288
298 308 310 309 308 307 307 306 302 295 294 292 295 296 297 294 291 293 292 292 289 287
292 295 303 305 307 301 295 295 295 295 291 291 291 290 293 293 293 293 292 292 292 291
289 290 289 294 296 296 297 296 294 294 294 292 291 292 294 291 291 293 291 290 290 290
286 287 287 287 289 293 296 296 294 295 295 294 292 291 293 293 291 292 291 290 289 289
285 285 286 287 287 288 290 293 294 295 295 295 292 290 289 288 288 288 288 289 289 289
283 285 286 286 286 286 287 287 289 290 290 289 289 289 288 288 288 288 287 287 288 288
281 282 283 284 285 286 286 286 287 286 287 287 288 291 291 290 288 288 288 287 287 287
280 280 281 282 284 284 285 285 285 286 286 286 286 291 292 290 288 287 288 287 286 286
277 278 280 280 281 281 282 283 284 285 285 285 286 291 292 290 288 287 287 287 287 286
273 274 276 278 279 280 281 281 282 283 283 284 285 290 291 290 287 286 286 286 286 286
272 271 271 272 276 278 280 280 281 282 282 283 284 288 290 290 286 285 284 285 286 285
271 271 271 270 272 272 273 276 277 279 279 280 282 285 289 291 285 284 283 283 283 284
Wind_Speed
15 10 10 12 10 10 10 11 14 14 14 14 13 12 12 10 10 11 9 9 6 4
7 10 11 14 13 10 10 9 12 14 14 14 14 14 13 10 10 10 10 9 7 5
6 4 7 10 12 12 10 11 12 9 8 8 9 11 13 8 7 10 7 6 8 5
5 5 5 6 9 9 8 9 10 11 9 9 10 9 11 10 11 13 10 9 11 11
4 4 3 3 7 7 10 10 12 12 12 12 12 12 13 12 11 14 13 12 11 11
6 6 5 3 2 7 8 11 10 12 14 14 13 13 14 14 13 14 13 13 13 12
8 6 5 4 3 1 2 9 10 11 12 12 11 10 10 9 8 7 7 9 11 11
7 6 6 6 5 3 4 3 1 7 6 6 9 9 11 10 10 10 8 7 7 9
8 7 7 6 5 4 4 3 4 3 3 5 5 11 16 13 10 10 10 10 9 7
9 8 7 6 5 5 4 3 2 2 4 5 4 11 14 14 8 9 10 10 9 8
10 9 8 7 6 5 3 3 2 1 2 3 4 13 15 16 9 9 10 11 11 12
8 7 8 8 7 5 4 3 2 1 1 3 3 11 13 13 8 8 9 10 12 13
6 6 6 5 5 4 3 3 3 2 2 3 3 8 13 13 6 7 6 6 9 16
6 5 5 5 4 3 3 4 4 3 4 3 3 6 14 17 7 6 6 7 6 7
Wind_Direction
191 185 188 185 180 187 189 191 186 193 187 184 182 181 179 181 187 190 195 188 172 169
176 188 187 187 185 185 184 186 188 194 191 187 181 180 180 182 182 185 192 193 181 173
18 228 181 170 180 180 180 177 177 175 179 168 176 174 178 178 167 179 185 182 179 185
357 352 277 176 184 168 150 159 167 173 166 171 173 176 180 181 173 188 187 189 191 202
354 348 345 231 180 164 167 172 171 172 184 184 184 184 190 180 182 191 193 193 188 196
18 4 11 359 283 175 168 180 175 176 188 194 193 190 196 193 191 196 197 190 192 187
18 357 358 21 42 73 180 173 180 190 193 197 188 188 183 172 173 185 190 196 194 185
6 2 7 19 28 51 93 59 134 177 183 174 178 183 176 179 180 179 175 172 190 192
15 15 16 14 18 31 54 89 124 107 129 168 178 185 185 177 181 182 184 192 189 184
11 16 12 13 24 30 24 24 68 135 156 159 145 182 187 183 178 181 191 191 183 180
9 11 9 16 18 16 11 17 19 164 170 155 184 193 190 184 182 190 194 191 183 181
5 10 8 11 2 7 7 15 3 341 190 185 201 213 204 188 184 194 192 187 184 181
352 3 6 351 350 345 352 7 6 12 353 238 229 228 221 196 180 189 178 177 187 185
351 351 354 342 347 346 9 29 21 31 4 2 249 240 235 193 170 170 169 178 178 184